Location: Gad�tanya
(48.0500°N, 20.8500°E)
Time: 10:12:28
(UTC+00:00)

Cosmos 1953 Rocket - Pass Details

Date: 05 July 2020
Orbit: 605 x 634 km, 82.5° (Epoch: 14 August)

Event Time Altitude Azimuth Distance (km) Brightness Sun altitude
Exits shadow 19:56:02 - 180° (S) 2,153 5.9 -10.2°
Reaches altitude 10° 19:56:33 10° 179° (S) 1,950 5.6 -10.2°
Maximum altitude 20:00:50 69° 96° (E) 651 3.5 -10.6°
Drops below altitude 10° 20:05:09 10° 14° (NNE) 1,968 6.7 -11.1°
Sets 20:07:23 0° 12° (NNE) 2,879 7.7 -11.3°
